Volver al catálogo

FALCON 9 R/B

ActivoMEO
NORAD 58348·ROCKET BODY·🇺🇸 United States

Lanzado Nov 12, 2023 desde Cape Canaveral Space Force Station

Loading…

Próximos Pases (próximas 24 horas)

TLE

ActualizadoSource: Space-Track

Época: Sep 14, 2026, 13:51 UTC

1 58348U 23175C   26257.57760694  .00000029  00000-0 -88866-2 0  9992
2 58348   9.0188  86.5320 1974411 352.2265   5.1211  7.34839601 76264

Sigue FALCON 9 R/B en tiempo real con AllMySat

Download on the App Store